N5KR Weather Reports


Display with metric or nautical units.
time (UTC)temp
F
wind
direction
speed
MPH
gust
MPH
rain 1hr
in
rain 24hr
in
rain mn
in
humidity
%
barometer
mb
20260906172005 95 184 5.0 9.0 0.00 0.00 0.00 50 1015.4
20260906170504 95 169 6.0 12.0 0.00 0.00 0.00 50 1015.4
20260906170004 95 159 5.0 13.0 0.00 0.00 0.00 51 1015.4
20260906165505 94 166 9.0 13.0 0.00 0.00 0.00 52 1015.4
20260906165004 94 168 6.0 14.0 0.00 0.00 0.00 51 1015.4
20260906164505 94 152 6.0 12.0 0.00 0.00 0.00 52 1015.7
20260906164004 94 165 7.0 13.0 0.00 0.00 0.00 52 1015.6
20260906163505 93 140 4.0 9.0 0.00 0.00 0.00 53 1015.7
20260906163004 93 107 4.0 9.0 0.00 0.00 0.00 54 1015.7
20260906162505 93 109 3.0 8.0 0.00 0.00 0.00 54 1015.6
20260906161504 93 150 5.0 12.0 0.00 0.00 0.00 55 1015.4
20260906161004 92 156 3.0 13.0 0.00 0.00 0.00 56 1015.4
20260906160504 92 167 5.0 10.0 0.00 0.00 0.00 57 1015.5
20260906160004 92 140 3.0 10.0 0.00 0.00 0.00 57 1015.4
20260906155504 92 113 5.0 12.0 0.00 0.00 0.00 56 1015.4
20260906155004 91 121 5.0 9.0 0.00 0.00 0.00 60 1015.4
20260906153504 90 123 4.0 7.0 0.00 0.00 0.00 63 1015.4
20260906153004 91 104 3.0 8.0 0.00 0.00 0.00 62 1015.3
20260906152505 90 151 2.0 8.0 0.00 0.00 0.00 64 1015.2
20260906152004 89 112 5.0 8.0 0.00 0.00 0.00 64 1015.2
20260906151504 89 95 3.0 7.0 0.00 0.00 0.00 65 1015.2
20260906151005 89 120 3.0 8.0 0.00 0.00 0.00 67 1015.2
20260906150504 88 90 3.0 7.0 0.00 0.00 0.00 67 1015.2
20260906150004 88 110 2.0 8.0 0.00 0.00 0.00 68 1015.2
20260906145504 88 129 3.0 6.0 0.00 0.00 0.00 69 1015.2
20260906145005 87 63 5.0 8.0 0.00 0.00 0.00 69 1015.1
20260906144505 87 98 3.0 7.0 0.00 0.00 0.00 69 1015.1
20260906144005 87 101 2.0 7.0 0.00 0.00 0.00 70 1015.1
20260906143004 86 128 2.0 5.0 0.00 0.00 0.00 70 1015.3
20260906142504 86 136 3.0 5.0 0.00 0.00 0.00 72 1015.3
20260906142004 85 117 3.0 5.0 0.00 0.00 0.00 72 1015.2
20260906141504 85 118 2.0 5.0 0.00 0.00 0.00 72 1015.2
20260906140004 84 123 0.0 3.0 0.00 0.00 0.00 76 1015.1
20260906135504 83 123 1.0 3.0 0.00 0.00 0.00 76 1015.0
20260906135004 83 94 1.0 3.0 0.00 0.00 0.00 77 1015.0
20260906134504 82 93 2.0 5.0 0.00 0.00 0.00 77 1015.0
20260906134005 82 78 1.0 6.0 0.00 0.00 0.00 79 1015.0
20260906133004 81 107 0.0 3.0 0.00 0.00 0.00 81 1015.0
20260906132505 81 107 0.0 0.0 0.00 0.00 0.00 82 1015.0
20260906132005 80 107 0.0 0.0 0.00 0.00 0.00 83 1015.1
20260906131503 80 179 0.0 0.0 0.00 0.00 0.00 83 1015.0
20260906131004 79 179 0.0 0.0 0.00 0.00 0.00 84 1015.0
20260906130504 79 179 0.0 0.0 0.00 0.00 0.00 85 1014.9
20260906130004 79 179 0.0 0.0 0.00 0.00 0.00 86 1014.9
20260906125505 78 179 0.0 0.0 0.00 0.00 0.00 86 1014.8
20260906124504 78 179 0.0 0.0 0.00 0.00 0.00 87 1014.8
20260906124004 78 179 0.0 0.0 0.00 0.00 0.00 87 1014.8
20260906123504 77 179 0.0 0.0 0.00 0.00 0.00 87 1014.7
20260906123005 77 179 0.0 0.0 0.00 0.00 0.00 87 1014.7
20260906122504 77 179 0.0 0.0 0.00 0.00 0.00 87 1014.7
20260906122004 77 179 0.0 0.0 0.00 0.00 0.00 87 1014.6
20260906121504 77 179 0.0 0.0 0.00 0.00 0.00 87 1014.6
20260906121004 77 179 0.0 0.0 0.00 0.00 0.00 87 1014.5
20260906120504 77 179 0.0 0.0 0.00 0.00 0.00 87 1014.5
20260906120004 77 179 0.0 0.0 0.00 0.00 0.00 87 1014.5
20260906115504 77 179 0.0 0.0 0.00 0.00 0.00 86 1014.6
20260906115003 77 179 0.0 0.0 0.00 0.00 0.00 86 1014.4
20260906114504 77 179 0.0 0.0 0.00 0.00 0.00 86 1014.3
20260906114004 77 179 0.0 0.0 0.00 0.00 0.00 86 1014.3
20260906113504 77 179 0.0 0.0 0.00 0.00 0.00 86 1014.4
20260906113004 78 179 0.0 0.0 0.00 0.00 0.00 86 1014.2
20260906112004 78 179 0.0 0.0 0.00 0.00 0.00 86 1014.2
20260906111504 78 179 0.0 0.0 0.00 0.00 0.00 86 1014.2
20260906111004 78 179 0.0 0.0 0.00 0.00 0.00 86 1014.1
20260906110503 78 179 0.0 0.0 0.00 0.00 0.00 86 1014.1
20260906110004 78 179 0.0 0.0 0.00 0.00 0.00 85 1014.1
20260906105503 78 179 0.0 0.0 0.00 0.00 0.00 85 1013.9
20260906105004 78 179 0.0 0.0 0.00 0.00 0.00 85 1013.9
20260906104504 78 179 0.0 0.0 0.00 0.00 0.00 85 1013.9
20260906104003 78 179 0.0 0.0 0.00 0.00 0.00 85 1013.9
20260906103504 78 179 0.0 0.0 0.00 0.00 0.00 85 1014.0
20260906103004 78 179 0.0 0.0 0.00 0.00 0.00 85 1013.8
20260906102503 78 179 0.0 0.0 0.00 0.00 0.00 85 1013.8
20260906102003 78 179 0.0 0.0 0.00 0.00 0.00 84 1013.9
20260906101504 78 179 0.0 0.0 0.00 0.00 0.00 84 1013.8
20260906101003 78 179 0.0 0.0 0.00 0.00 0.00 84 1013.8
20260906100503 78 179 0.0 0.0 0.00 0.00 0.00 84 1013.7
20260906100004 78 179 0.0 0.0 0.00 0.00 0.00 84 1013.7
20260906095504 78 179 0.0 0.0 0.00 0.00 0.00 83 1013.7
20260906095003 78 179 0.0 0.0 0.00 0.00 0.00 84 1013.7
20260906094504 78 179 0.0 0.0 0.00 0.00 0.00 83 1013.5
20260906094004 79 179 0.0 0.0 0.00 0.00 0.00 83 1013.5
20260906093504 79 179 0.0 0.0 0.00 0.00 0.00 83 1013.5
20260906093004 79 179 0.0 0.0 0.00 0.00 0.00 82 1013.5
20260906092007 79 179 0.0 0.0 0.00 0.00 0.00 81 1013.3
20260906091506 79 179 0.0 0.0 0.00 0.00 0.00 81 1013.3
20260906091007 80 179 0.0 0.0 0.00 0.00 0.00 81 1013.2
20260906090507 80 179 0.0 0.0 0.00 0.00 0.00 80 1013.3
20260906090007 80 179 0.0 0.0 0.00 0.00 0.00 79 1013.3
20260906085507 80 179 1.0 2.0 0.00 0.00 0.00 79 1013.1
20260906085007 80 179 1.0 3.0 0.00 0.00 0.00 79 1013.2
20260906084506 80 179 1.0 5.0 0.00 0.00 0.00 79 1013.1
20260906084006 80 179 2.0 5.0 0.00 0.00 0.00 79 1013.2
20260906083506 81 155 2.0 5.0 0.00 0.00 0.00 78 1013.1
20260906083006 81 163 0.0 5.0 0.00 0.00 0.00 78 1013.2
20260906082507 81 163 3.0 6.0 0.00 0.00 0.00 78 1013.2
20260906082007 81 190 0.0 2.0 0.00 0.00 0.00 77 1013.0
20260906081506 81 190 2.0 6.0 0.00 0.00 0.00 77 1013.1
20260906081007 81 173 0.0 3.0 0.00 0.00 0.00 77 1013.1
20260906080507 81 169 0.0 0.0 0.00 0.00 0.00 77 1013.3
20260906075506 81 181 2.0 3.0 0.00 0.00 0.00 77 1013.4
20260906075006 81 174 2.0 3.0 0.00 0.00 0.00 77 1013.4
20260906074506 81 181 1.0 5.0 0.00 0.00 0.00 76 1013.3
20260906074006 81 181 1.0 5.0 0.00 0.00 0.00 76 1013.3
20260906073506 81 182 1.0 5.0 0.00 0.00 0.00 76 1013.1
20260906072507 81 261 1.0 3.0 0.00 0.00 0.00 76 1013.2
20260906072006 82 160 0.0 0.0 0.00 0.00 0.00 76 1013.3
20260906071506 82 160 0.0 0.0 0.00 0.00 0.00 75 1013.4
20260906071007 82 160 0.0 2.0 0.00 0.00 0.00 75 1013.5
20260906070507 82 160 2.0 5.0 0.00 0.00 0.00 75 1013.5
20260906070006 82 160 2.0 6.0 0.00 0.00 0.00 74 1013.5
20260906065507 82 192 3.0 8.0 0.00 0.00 0.00 74 1013.6
20260906065006 82 175 3.0 7.0 0.00 0.00 0.00 73 1013.6
20260906064507 82 173 4.0 7.0 0.00 0.00 0.00 73 1013.6
20260906064007 83 174 2.0 3.0 0.00 0.00 0.00 72 1013.6
20260906063507 83 172 1.0 6.0 0.00 0.00 0.00 72 1013.5
20260906063007 83 181 4.0 7.0 0.00 0.00 0.00 71 1013.5
20260906062507 83 163 1.0 7.0 0.00 0.00 0.00 71 1013.5
20260906062007 83 161 5.0 7.0 0.00 0.00 0.00 71 1013.6
20260906061506 83 172 3.0 7.0 0.00 0.00 0.00 70 1013.7
20260906061006 83 185 2.0 6.0 0.00 0.00 0.00 69 1013.6
20260906060507 83 178 2.0 5.0 0.00 0.00 0.00 69 1013.7
20260906060007 83 175 1.0 3.0 0.00 0.00 0.00 69 1013.6
20260906055506 83 175 2.0 5.0 0.00 0.00 0.00 68 1013.5
20260906055007 84 179 1.0 6.0 0.00 0.00 0.00 68 1013.6
20260906054507 84 177 1.0 5.0 0.00 0.00 0.00 68 1013.7
20260906053506 84 156 2.0 6.0 0.00 0.00 0.00 67 1013.5
20260906053006 84 186 1.0 6.0 0.00 0.00 0.00 67 1013.5
20260906052506 84 159 2.0 6.0 0.00 0.00 0.00 67 1013.4
20260906052006 84 184 1.0 3.0 0.00 0.00 0.00 67 1013.5
20260906051506 84 184 1.0 3.0 0.00 0.00 0.00 66 1013.4
20260906051007 85 183 3.0 6.0 0.00 0.00 0.00 66 1013.5
20260906050506 85 191 2.0 6.0 0.00 0.00 0.00 66 1013.5
20260906050006 85 190 2.0 7.0 0.00 0.00 0.00 66 1013.5
20260906045506 85 186 1.0 6.0 0.00 0.00 0.00 66 1013.5
20260906045006 85 153 3.0 8.0 0.00 0.00 0.00 66 1013.5
20260906044506 85 167 5.0 12.0 0.00 0.00 0.00 66 1013.6
20260906044006 85 165 3.0 10.0 0.00 0.00 0.00 66 1013.5
20260906043506 85 157 3.0 9.0 0.00 0.00 0.00 66 1013.6
20260906042506 85 166 5.0 9.0 0.00 0.00 0.00 65 1013.5
20260906042006 85 174 5.0 9.0 0.00 0.00 0.00 65 1013.5
20260906041506 85 155 8.0 13.0 0.00 0.00 0.00 65 1013.7
20260906041006 86 165 6.0 12.0 0.00 0.00 0.00 65 1013.5
20260906040506 86 173 4.0 10.0 0.00 0.00 0.00 65 1013.5
20260906035006 86 183 5.0 8.0 0.00 0.00 0.00 64 1013.5
20260906034506 86 168 3.0 10.0 0.00 0.00 0.00 64 1013.5
20260906033006 86 175 6.0 12.0 0.00 0.00 0.00 63 1013.5
20260906032506 86 159 6.0 13.0 0.00 0.00 0.00 63 1013.4
20260906032006 86 168 6.0 9.0 0.00 0.00 0.00 63 1013.5
20260906031505 87 151 5.0 10.0 0.00 0.00 0.00 62 1013.6
20260906031006 87 178 4.0 13.0 0.00 0.00 0.00 62 1013.6
20260906030506 87 172 6.0 12.0 0.00 0.00 0.00 61 1013.6
20260906030006 87 182 4.0 7.0 0.00 0.00 0.00 61 1013.5
20260906025505 87 164 2.0 6.0 0.00 0.00 0.00 61 1013.5
20260906025006 87 157 2.0 6.0 0.00 0.00 0.00 61 1013.4
20260906024506 87 157 2.0 8.0 0.00 0.00 0.00 61 1013.4
20260906023505 87 169 4.0 10.0 0.00 0.00 0.00 60 1013.1
20260906022506 87 144 3.0 8.0 0.00 0.00 0.00 60 1013.0
20260906022006 87 157 2.0 8.0 0.00 0.00 0.00 60 1013.0
20260906021506 87 169 2.0 6.0 0.00 0.00 0.00 60 1012.9
20260906021006 88 163 2.0 9.0 0.00 0.00 0.00 59 1012.8
20260906020506 88 183 4.0 13.0 0.00 0.00 0.00 59 1012.8
20260906020006 88 144 6.0 12.0 0.00 0.00 0.00 59 1012.7
20260906015506 88 137 7.0 13.0 0.00 0.00 0.00 58 1012.7
20260906015006 88 164 9.0 16.0 0.00 0.00 0.00 58 1012.7
20260906014506 88 159 9.0 13.0 0.00 0.00 0.00 57 1012.6
20260906013506 89 159 7.0 14.0 0.00 0.00 0.00 55 1012.4
20260906013006 90 171 5.0 16.0 0.00 0.00 0.00 55 1012.4
20260906012006 91 158 8.0 16.0 0.00 0.00 0.00 53 1012.0
20260906011506 91 150 9.0 14.0 0.00 0.00 0.00 52 1012.0
20260906011006 92 160 9.0 14.0 0.00 0.00 0.00 51 1012.0
20260906010505 92 159 6.0 16.0 0.00 0.00 0.00 51 1011.9
20260906005507 93 162 8.0 15.0 0.00 0.00 0.00 49 1011.8
20260906005006 94 161 10.0 18.0 0.00 0.00 0.00 48 1011.7
20260906004506 95 139 4.0 10.0 0.00 0.00 0.00 45 1011.6
20260906004006 95 173 5.0 9.0 0.00 0.00 0.00 45 1011.6
20260906003506 95 141 4.0 9.0 0.00 0.00 0.00 44 1011.6
20260906002506 95 146 3.0 7.0 0.00 0.00 0.00 43 1011.6
20260906002005 95 139 5.0 9.0 0.00 0.00 0.00 44 1011.6
20260906001506 96 156 5.0 10.0 0.00 0.00 0.00 43 1011.7
20260906001006 96 164 4.0 7.0 0.00 0.00 0.00 43 1011.7
20260906000506 96 160 4.0 10.0 0.00 0.00 0.00 42 1011.7
20260905235505 96 138 4.0 10.0 0.00 0.00 0.00 42 1011.5
20260905235006 96 168 5.0 9.0 0.00 0.00 0.00 41 1011.4
20260905234505 96 180 5.0 8.0 0.00 0.00 0.00 41 1011.3
20260905234005 97 155 4.0 8.0 0.00 0.00 0.00 41 1011.4
20260905233505 97 148 4.0 10.0 0.00 0.00 0.00 41 1011.4
20260905233006 97 134 5.0 12.0 0.00 0.00 0.00 41 1011.4
20260905232505 97 120 3.0 8.0 0.00 0.00 0.00 40 1011.4
20260905231506 97 66 5.0 9.0 0.00 0.00 0.00 40 1011.4
20260905231006 97 119 2.0 9.0 0.00 0.00 0.00 40 1011.5
20260905230506 97 117 5.0 10.0 0.00 0.00 0.00 40 1011.4
20260905230005 97 71 5.0 10.0 0.00 0.00 0.00 40 1011.4
20260905225505 98 161 2.0 9.0 0.00 0.00 0.00 40 1011.3
20260905225005 98 119 4.0 9.0 0.00 0.00 0.00 40 1011.4
20260905224505 98 143 4.0 10.0 0.00 0.00 0.00 40 1011.4
20260905224005 98 98 2.0 7.0 0.00 0.00 0.00 40 1011.3
20260905223505 98 146 4.0 8.0 0.00 0.00 0.00 40 1011.3
20260905223005 98 132 2.0 5.0 0.00 0.00 0.00 41 1011.3
20260905222505 98 182 3.0 8.0 0.00 0.00 0.00 40 1011.3
20260905221505 98 111 0.0 5.0 0.00 0.00 0.00 40 1011.4
20260905220505 98 193 5.0 9.0 0.00 0.00 0.00 39 1011.7
20260905220006 98 211 1.0 7.0 0.00 0.00 0.00 39 1011.7
20260905215005 98 144 3.0 6.0 0.00 0.00 0.00 38 1011.7
20260905214505 99 107 3.0 9.0 0.00 0.00 0.00 39 1011.7
20260905214005 99 58 2.0 10.0 0.00 0.00 0.00 38 1011.8
20260905213505 99 111 5.0 9.0 0.00 0.00 0.00 38 1011.9
20260905212005 99 131 3.0 10.0 0.00 0.00 0.00 39 1012.1
20260905211505 98 113 0.0 0.0 0.00 0.00 0.00 39 1012.1
20260905211005 98 113 2.0 6.0 0.00 0.00 0.00 39 1012.2
20260905210505 98 160 4.0 8.0 0.00 0.00 0.00 40 1012.1
20260905205505 97 157 3.0 6.0 0.00 0.00 0.00 41 1012.4
20260905205005 99 109 2.0 9.0 0.00 0.00 0.00 39 1012.5
20260905204505 98 165 5.0 10.0 0.00 0.00 0.00 41 1012.4
20260905204005 98 213 1.0 3.0 0.00 0.00 0.00 41 1012.6
20260905203505 99 149 5.0 9.0 0.00 0.00 0.00 41 1012.6
20260905203005 98 163 1.0 2.0 0.00 0.00 0.00 40 1012.7
20260905202505 97 163 4.0 10.0 0.00 0.00 0.00 42 1012.7
20260905202005 95 194 1.0 6.0 0.00 0.00 0.00 44 1012.9
20260905201005 97 107 3.0 8.0 0.00 0.00 0.00 42 1013.0
20260905200505 99 117 5.0 12.0 0.00 0.00 0.00 43 1012.9
20260905200005 96 192 2.0 12.0 0.00 0.00 0.00 44 1013.0
20260905195005 98 10 2.0 7.0 0.00 0.00 0.00 41 1013.3
20260905194505 98 162 6.0 10.0 0.00 0.00 0.00 42 1013.3
20260905194004 97 157 5.0 10.0 0.00 0.00 0.00 43 1013.3
20260905193505 95 107 4.0 10.0 0.00 0.00 0.00 45 1013.4
20260905193005 96 99 1.0 9.0 0.00 0.00 0.00 44 1013.5
20260905191504 96 109 3.0 9.0 0.00 0.00 0.00 45 1013.9
20260905191005 97 165 2.0 8.0 0.00 0.00 0.00 44 1014.1
20260905190505 99 202 3.0 8.0 0.00 0.00 0.00 42 1014.2
20260905190005 99 172 5.0 10.0 0.00 0.00 0.00 44 1014.1
20260905185505 98 181 4.0 9.0 0.00 0.00 0.00 44 1014.3
20260905184505 98 355 3.0 9.0 0.00 0.00 0.00 44 1014.5
20260905184005 97 113 6.0 12.0 0.00 0.00 0.00 45 1014.5
20260905183505 96 103 4.0 10.0 0.00 0.00 0.00 46 1014.6
20260905183005 96 56 3.0 6.0 0.00 0.00 0.00 46 1014.7
20260905182505 97 159 4.0 12.0 0.00 0.00 0.00 46 1014.8
20260905180505 97 164 6.0 13.0 0.00 0.00 0.00 45 1014.9
20260905180005 97 169 6.0 17.0 0.00 0.00 0.00 44 1015.1
20260905175504 96 163 2.0 8.0 0.00 0.00 0.00 46 1015.2
20260905175005 96 114 2.0 9.0 0.00 0.00 0.00 44 1015.3
20260905174505 96 175 7.0 13.0 0.00 0.00 0.00 45 1015.3
20260905174004 95 121 5.0 9.0 0.00 0.00 0.00 48 1015.4
20260905173505 95 94 2.0 9.0 0.00 0.00 0.00 49 1015.4
20260905173005 95 175 4.0 8.0 0.00 0.00 0.00 48 1015.4